owner,sensor,date,latitude,longitude,mass_concentration_of_chlorophyll_in_sea_water,qcFlag 
LUMCON,ioos:station:LUMCON:wisl1:1,2019-05-01T00:00:00Z,29.1144,-90.1840,29.4,11111222 
LUMCON,ioos:station:LUMCON:wisl1:1,2019-05-01T00:15:00Z,29.1144,-90.1840,29.96,11111222 
LUMCON,ioos:station:LUMCON:wisl1:1,2019-05-01T00:30:00Z,29.1144,-90.1840,27.98,11111222 
LUMCON,ioos:station:LUMCON:wisl1:1,2019-05-01T00:45:00Z,29.1144,-90.1840,25.79,11111222 
LUMCON,ioos:station:LUMCON:wisl1:1,2019-05-01T01:00:00Z,29.1144,-90.1840,26.78,11111222 
LUMCON,ioos:station:LUMCON:wisl1:1,2019-05-01T01:15:00Z,29.1144,-90.1840,30.47,11111222 
LUMCON,ioos:station:LUMCON:wisl1:1,2019-05-01T01:30:00Z,29.1144,-90.1840,30.23,11111222 
LUMCON,ioos:station:LUMCON:wisl1:1,2019-05-01T01:45:00Z,29.1144,-90.1840,25.74,11111222 
LUMCON,ioos:station:LUMCON:wisl1:1,2019-05-01T02:00:00Z,29.1144,-90.1840,24.9,11111222 
LUMCON,ioos:station:LUMCON:wisl1:1,2019-05-01T02:15:00Z,29.1144,-90.1840,25.19,11111222 
LUMCON,ioos:station:LUMCON:wisl1:1,2019-05-01T02:30:00Z,29.1144,-90.1840,25.58,11111222 
LUMCON,ioos:station:LUMCON:wisl1:1,2019-05-01T02:45:00Z,29.1144,-90.1840,24.78,11111222 
LUMCON,ioos:station:LUMCON:wisl1:1,2019-05-01T03:00:00Z,29.1144,-90.1840,26.18,11111222 
LUMCON,ioos:station:LUMCON:wisl1:1,2019-05-01T03:15:00Z,29.1144,-90.1840,24.73,11111222 
LUMCON,ioos:station:LUMCON:wisl1:1,2019-05-01T03:30:00Z,29.1144,-90.1840,25.33,11111222 
LUMCON,ioos:station:LUMCON:wisl1:1,2019-05-01T03:45:00Z,29.1144,-90.1840,28.17,11111222 
LUMCON,ioos:station:LUMCON:wisl1:1,2019-05-01T04:00:00Z,29.1144,-90.1840,24.78,11111222 
LUMCON,ioos:station:LUMCON:wisl1:1,2019-05-01T04:15:00Z,29.1144,-90.1840,25.78,11111222 
LUMCON,ioos:station:LUMCON:wisl1:1,2019-05-01T04:30:00Z,29.1144,-90.1840,26.1,11111222 
LUMCON,ioos:station:LUMCON:wisl1:1,2019-05-01T04:45:00Z,29.1144,-90.1840,25.46,11111222 
LUMCON,ioos:station:LUMCON:wisl1:1,2019-05-01T05:00:00Z,29.1144,-90.1840,23.42,11111222 
LUMCON,ioos:station:LUMCON:wisl1:1,2019-05-01T05:15:00Z,29.1144,-90.1840,23.19,11111222 
LUMCON,ioos:station:LUMCON:wisl1:1,2019-05-01T05:30:00Z,29.1144,-90.1840,23.41,11111222 
LUMCON,ioos:station:LUMCON:wisl1:1,2019-05-01T05:45:00Z,29.1144,-90.1840,22.14,11111222 
LUMCON,ioos:station:LUMCON:wisl1:1,2019-05-01T06:00:00Z,29.1144,-90.1840,25.76,11111222 
LUMCON,ioos:station:LUMCON:wisl1:1,2019-05-01T06:15:00Z,29.1144,-90.1840,24.33,11111222 
LUMCON,ioos:station:LUMCON:wisl1:1,2019-05-01T06:30:00Z,29.1144,-90.1840,25.16,11111222 
LUMCON,ioos:station:LUMCON:wisl1:1,2019-05-01T06:45:00Z,29.1144,-90.1840,27.25,11111222 
LUMCON,ioos:station:LUMCON:wisl1:1,2019-05-01T07:00:00Z,29.1144,-90.1840,25.94,11111222 
LUMCON,ioos:station:LUMCON:wisl1:1,2019-05-01T07:15:00Z,29.1144,-90.1840,25.84,11111222 
LUMCON,ioos:station:LUMCON:wisl1:1,2019-05-01T07:30:00Z,29.1144,-90.1840,25.53,11111222 
LUMCON,ioos:station:LUMCON:wisl1:1,2019-05-01T07:45:00Z,29.1144,-90.1840,22.77,11111222 
LUMCON,ioos:station:LUMCON:wisl1:1,2019-05-01T08:00:00Z,29.1144,-90.1840,22.86,11111222 
LUMCON,ioos:station:LUMCON:wisl1:1,2019-05-01T08:15:00Z,29.1144,-90.1840,21.84,11111222 
LUMCON,ioos:station:LUMCON:wisl1:1,2019-05-01T08:30:00Z,29.1144,-90.1840,20.21,11111222 
LUMCON,ioos:station:LUMCON:wisl1:1,2019-05-01T08:45:00Z,29.1144,-90.1840,21.73,11111222 
LUMCON,ioos:station:LUMCON:wisl1:1,2019-05-01T09:00:00Z,29.1144,-90.1840,19.67,11111222 
LUMCON,ioos:station:LUMCON:wisl1:1,2019-05-01T09:15:00Z,29.1144,-90.1840,21.19,11111222 
LUMCON,ioos:station:LUMCON:wisl1:1,2019-05-01T09:30:00Z,29.1144,-90.1840,19.31,11111222 
LUMCON,ioos:station:LUMCON:wisl1:1,2019-05-01T09:45:00Z,29.1144,-90.1840,20.12,11111222 
LUMCON,ioos:station:LUMCON:wisl1:1,2019-05-01T10:00:00Z,29.1144,-90.1840,19.81,11111222 
LUMCON,ioos:station:LUMCON:wisl1:1,2019-05-01T10:15:00Z,29.1144,-90.1840,20.2,11111222 
LUMCON,ioos:station:LUMCON:wisl1:1,2019-05-01T10:30:00Z,29.1144,-90.1840,19.5,11111222 
LUMCON,ioos:station:LUMCON:wisl1:1,2019-05-01T10:45:00Z,29.1144,-90.1840,21.1,11111222 
LUMCON,ioos:station:LUMCON:wisl1:1,2019-05-01T11:00:00Z,29.1144,-90.1840,21.84,11111222 
LUMCON,ioos:station:LUMCON:wisl1:1,2019-05-01T11:15:00Z,29.1144,-90.1840,21.4,11111222 
LUMCON,ioos:station:LUMCON:wisl1:1,2019-05-01T11:30:00Z,29.1144,-90.1840,20.91,11111222 
LUMCON,ioos:station:LUMCON:wisl1:1,2019-05-01T11:45:00Z,29.1144,-90.1840,20.85,11111222 
LUMCON,ioos:station:LUMCON:wisl1:1,2019-05-01T12:00:00Z,29.1144,-90.1840,19.06,11111222 
LUMCON,ioos:station:LUMCON:wisl1:1,2019-05-01T12:15:00Z,29.1144,-90.1840,19.23,11111222 
LUMCON,ioos:station:LUMCON:wisl1:1,2019-05-01T12:30:00Z,29.1144,-90.1840,19.17,11111222 
LUMCON,ioos:station:LUMCON:wisl1:1,2019-05-01T12:45:00Z,29.1144,-90.1840,18.58,11111222 
LUMCON,ioos:station:LUMCON:wisl1:1,2019-05-01T13:00:00Z,29.1144,-90.1840,20.59,11111222 
LUMCON,ioos:station:LUMCON:wisl1:1,2019-05-01T13:15:00Z,29.1144,-90.1840,20.62,11111222 
LUMCON,ioos:station:LUMCON:wisl1:1,2019-05-01T13:30:00Z,29.1144,-90.1840,19.17,11111222 
LUMCON,ioos:station:LUMCON:wisl1:1,2019-05-01T13:45:00Z,29.1144,-90.1840,20.29,11111222 
LUMCON,ioos:station:LUMCON:wisl1:1,2019-05-01T14:00:00Z,29.1144,-90.1840,20.71,11111222 
LUMCON,ioos:station:LUMCON:wisl1:1,2019-05-01T14:15:00Z,29.1144,-90.1840,17.75,11111222 
LUMCON,ioos:station:LUMCON:wisl1:1,2019-05-01T14:30:00Z,29.1144,-90.1840,17.96,11111222 
LUMCON,ioos:station:LUMCON:wisl1:1,2019-05-01T14:45:00Z,29.1144,-90.1840,16.91,11111222 
LUMCON,ioos:station:LUMCON:wisl1:1,2019-05-01T15:00:00Z,29.1144,-90.1840,20.26,11111222 
LUMCON,ioos:station:LUMCON:wisl1:1,2019-05-01T15:15:00Z,29.1144,-90.1840,21.42,11111222 
LUMCON,ioos:station:LUMCON:wisl1:1,2019-05-01T15:30:00Z,29.1144,-90.1840,20.71,11111222 
LUMCON,ioos:station:LUMCON:wisl1:1,2019-05-01T15:45:00Z,29.1144,-90.1840,18.7,11111222 
LUMCON,ioos:station:LUMCON:wisl1:1,2019-05-01T16:00:00Z,29.1144,-90.1840,21.61,11111222 
LUMCON,ioos:station:LUMCON:wisl1:1,2019-05-01T16:15:00Z,29.1144,-90.1840,19.69,11111222 
LUMCON,ioos:station:LUMCON:wisl1:1,2019-05-01T16:30:00Z,29.1144,-90.1840,21.98,11111222 
LUMCON,ioos:station:LUMCON:wisl1:1,2019-05-01T16:45:00Z,29.1144,-90.1840,23.05,11111222 
LUMCON,ioos:station:LUMCON:wisl1:1,2019-05-01T17:00:00Z,29.1144,-90.1840,23.25,11111222 
LUMCON,ioos:station:LUMCON:wisl1:1,2019-05-01T17:15:00Z,29.1144,-90.1840,23.56,11111222 
LUMCON,ioos:station:LUMCON:wisl1:1,2019-05-01T17:30:00Z,29.1144,-90.1840,21.67,11111222 
LUMCON,ioos:station:LUMCON:wisl1:1,2019-05-01T17:45:00Z,29.1144,-90.1840,21.74,11111222 
LUMCON,ioos:station:LUMCON:wisl1:1,2019-05-01T18:00:00Z,29.1144,-90.1840,22.77,11111222 
LUMCON,ioos:station:LUMCON:wisl1:1,2019-05-01T18:15:00Z,29.1144,-90.1840,22.63,11111222 
LUMCON,ioos:station:LUMCON:wisl1:1,2019-05-01T18:30:00Z,29.1144,-90.1840,20.33,11111222 
LUMCON,ioos:station:LUMCON:wisl1:1,2019-05-01T18:45:00Z,29.1144,-90.1840,26.38,11111222 
LUMCON,ioos:station:LUMCON:wisl1:1,2019-05-01T19:00:00Z,29.1144,-90.1840,22.75,11111222 
LUMCON,ioos:station:LUMCON:wisl1:1,2019-05-01T19:15:00Z,29.1144,-90.1840,24.53,11111222 
LUMCON,ioos:station:LUMCON:wisl1:1,2019-05-01T19:30:00Z,29.1144,-90.1840,26.19,11111222 
LUMCON,ioos:station:LUMCON:wisl1:1,2019-05-01T19:45:00Z,29.1144,-90.1840,25.01,11111222 
LUMCON,ioos:station:LUMCON:wisl1:1,2019-05-01T20:00:00Z,29.1144,-90.1840,22.96,11111222 
LUMCON,ioos:station:LUMCON:wisl1:1,2019-05-01T20:15:00Z,29.1144,-90.1840,22.86,11111222 
LUMCON,ioos:station:LUMCON:wisl1:1,2019-05-01T20:30:00Z,29.1144,-90.1840,23.37,11111222 
LUMCON,ioos:station:LUMCON:wisl1:1,2019-05-01T20:45:00Z,29.1144,-90.1840,23.82,11111222 
LUMCON,ioos:station:LUMCON:wisl1:1,2019-05-01T21:00:00Z,29.1144,-90.1840,25.03,11111222 
LUMCON,ioos:station:LUMCON:wisl1:1,2019-05-01T21:15:00Z,29.1144,-90.1840,25.09,11111222 
LUMCON,ioos:station:LUMCON:wisl1:1,2019-05-01T21:30:00Z,29.1144,-90.1840,25.65,11111222 
LUMCON,ioos:station:LUMCON:wisl1:1,2019-05-01T21:45:00Z,29.1144,-90.1840,25.86,11111222 
LUMCON,ioos:station:LUMCON:wisl1:1,2019-05-01T22:00:00Z,29.1144,-90.1840,25.82,11111222 
LUMCON,ioos:station:LUMCON:wisl1:1,2019-05-01T22:15:00Z,29.1144,-90.1840,25.56,11111222 
LUMCON,ioos:station:LUMCON:wisl1:1,2019-05-01T22:30:00Z,29.1144,-90.1840,25.72,11111222 
LUMCON,ioos:station:LUMCON:wisl1:1,2019-05-01T22:45:00Z,29.1144,-90.1840,25.95,11111222 
LUMCON,ioos:station:LUMCON:wisl1:1,2019-05-01T23:00:00Z,29.1144,-90.1840,25.33,11111222 
LUMCON,ioos:station:LUMCON:wisl1:1,2019-05-01T23:15:00Z,29.1144,-90.1840,26.49,11111222 
LUMCON,ioos:station:LUMCON:wisl1:1,2019-05-09T11:30:00Z,29.1144,-90.1840,10.13,11111222 
LUMCON,ioos:station:LUMCON:wisl1:1,2019-05-09T11:45:00Z,29.1144,-90.1840,9.54,11111222 
LUMCON,ioos:station:LUMCON:wisl1:1,2019-05-09T12:00:00Z,29.1144,-90.1840,9.27,11111222 
LUMCON,ioos:station:LUMCON:wisl1:1,2019-05-09T12:15:00Z,29.1144,-90.1840,10.53,11111222 
LUMCON,ioos:station:LUMCON:wisl1:1,2019-05-09T12:30:00Z,29.1144,-90.1840,10.55,11111222 
LUMCON,ioos:station:LUMCON:wisl1:1,2019-05-09T12:45:00Z,29.1144,-90.1840,11.24,11111222 
LUMCON,ioos:station:LUMCON:wisl1:1,2019-05-09T13:00:00Z,29.1144,-90.1840,10.95,11111222 
LUMCON,ioos:station:LUMCON:wisl1:1,2019-05-09T13:15:00Z,29.1144,-90.1840,9.91,11111222 
LUMCON,ioos:station:LUMCON:wisl1:1,2019-05-09T13:30:00Z,29.1144,-90.1840,10.38,11111222 
LUMCON,ioos:station:LUMCON:wisl1:1,2019-05-09T13:45:00Z,29.1144,-90.1840,10.33,11111222 
LUMCON,ioos:station:LUMCON:wisl1:1,2019-05-09T14:00:00Z,29.1144,-90.1840,10.82,11111222 
LUMCON,ioos:station:LUMCON:wisl1:1,2019-05-09T14:15:00Z,29.1144,-90.1840,9.64,11111222 
LUMCON,ioos:station:LUMCON:wisl1:1,2019-05-09T14:30:00Z,29.1144,-90.1840,9.36,11111222 
LUMCON,ioos:station:LUMCON:wisl1:1,2019-05-09T14:45:00Z,29.1144,-90.1840,9.63,11111222 
LUMCON,ioos:station:LUMCON:wisl1:1,2019-05-09T15:00:00Z,29.1144,-90.1840,10.22,11111222 
LUMCON,ioos:station:LUMCON:wisl1:1,2019-05-09T15:15:00Z,29.1144,-90.1840,9.6,11111222 
LUMCON,ioos:station:LUMCON:wisl1:1,2019-05-09T15:30:00Z,29.1144,-90.1840,9.99,11111222 
LUMCON,ioos:station:LUMCON:wisl1:1,2019-05-09T15:45:00Z,29.1144,-90.1840,10.51,11111222 
LUMCON,ioos:station:LUMCON:wisl1:1,2019-05-09T16:00:00Z,29.1144,-90.1840,10.47,11111222 
LUMCON,ioos:station:LUMCON:wisl1:1,2019-05-09T16:15:00Z,29.1144,-90.1840,10.31,11111222 
LUMCON,ioos:station:LUMCON:wisl1:1,2019-05-09T16:30:00Z,29.1144,-90.1840,10.0,11111222 
LUMCON,ioos:station:LUMCON:wisl1:1,2019-05-09T16:45:00Z,29.1144,-90.1840,9.85,11111222 
LUMCON,ioos:station:LUMCON:wisl1:1,2019-05-09T17:00:00Z,29.1144,-90.1840,10.19,11111222 
LUMCON,ioos:station:LUMCON:wisl1:1,2019-05-09T17:15:00Z,29.1144,-90.1840,10.14,11111222 
LUMCON,ioos:station:LUMCON:wisl1:1,2019-05-09T17:30:00Z,29.1144,-90.1840,9.79,11111222 
LUMCON,ioos:station:LUMCON:wisl1:1,2019-05-09T17:45:00Z,29.1144,-90.1840,9.71,11111222 
LUMCON,ioos:station:LUMCON:wisl1:1,2019-05-09T18:00:00Z,29.1144,-90.1840,9.71,11111222 
LUMCON,ioos:station:LUMCON:wisl1:1,2019-05-09T18:15:00Z,29.1144,-90.1840,11.57,11111222 
LUMCON,ioos:station:LUMCON:wisl1:1,2019-05-09T18:30:00Z,29.1144,-90.1840,9.4,11111222 
LUMCON,ioos:station:LUMCON:wisl1:1,2019-05-09T18:45:00Z,29.1144,-90.1840,9.62,11111222 
LUMCON,ioos:station:LUMCON:wisl1:1,2019-05-09T19:00:00Z,29.1144,-90.1840,10.18,11111222 
LUMCON,ioos:station:LUMCON:wisl1:1,2019-05-09T19:15:00Z,29.1144,-90.1840,10.93,11111222 
LUMCON,ioos:station:LUMCON:wisl1:1,2019-05-09T19:30:00Z,29.1144,-90.1840,9.15,11111222 
LUMCON,ioos:station:LUMCON:wisl1:1,2019-05-09T19:45:00Z,29.1144,-90.1840,10.38,11111222 
LUMCON,ioos:station:LUMCON:wisl1:1,2019-05-09T20:00:00Z,29.1144,-90.1840,9.89,11111222 
LUMCON,ioos:station:LUMCON:wisl1:1,2019-05-09T20:15:00Z,29.1144,-90.1840,9.61,11111222 
LUMCON,ioos:station:LUMCON:wisl1:1,2019-05-09T20:30:00Z,29.1144,-90.1840,10.99,11111222 
LUMCON,ioos:station:LUMCON:wisl1:1,2019-05-09T20:45:00Z,29.1144,-90.1840,12.39,11111222 
LUMCON,ioos:station:LUMCON:wisl1:1,2019-05-09T21:00:00Z,29.1144,-90.1840,14.03,11111222 
LUMCON,ioos:station:LUMCON:wisl1:1,2019-05-09T21:15:00Z,29.1144,-90.1840,11.33,11111222 
LUMCON,ioos:station:LUMCON:wisl1:1,2019-05-09T21:30:00Z,29.1144,-90.1840,11.13,11111222 
LUMCON,ioos:station:LUMCON:wisl1:1,2019-05-09T21:45:00Z,29.1144,-90.1840,12.5,11111222 
LUMCON,ioos:station:LUMCON:wisl1:1,2019-05-09T22:00:00Z,29.1144,-90.1840,13.26,11111222 
LUMCON,ioos:station:LUMCON:wisl1:1,2019-05-09T22:15:00Z,29.1144,-90.1840,13.65,11111222 
LUMCON,ioos:station:LUMCON:wisl1:1,2019-05-09T22:30:00Z,29.1144,-90.1840,13.84,11111222 
LUMCON,ioos:station:LUMCON:wisl1:1,2019-05-09T22:45:00Z,29.1144,-90.1840,14.52,11111222 
LUMCON,ioos:station:LUMCON:wisl1:1,2019-05-09T23:00:00Z,29.1144,-90.1840,14.95,11111222 
LUMCON,ioos:station:LUMCON:wisl1:1,2019-05-09T23:15:00Z,29.1144,-90.1840,14.07,11111222 
LUMCON,ioos:station:LUMCON:wisl1:1,2019-05-09T23:30:00Z,29.1144,-90.1840,14.88,11111222 
LUMCON,ioos:station:LUMCON:wisl1:1,2019-05-09T23:45:00Z,29.1144,-90.1840,15.75,11111222 
LUMCON,ioos:station:LUMCON:wisl1:1,2019-05-10T00:00:00Z,29.1144,-90.1840,15.59,11111222 
LUMCON,ioos:station:LUMCON:wisl1:1,2019-05-10T00:15:00Z,29.1144,-90.1840,16.58,11111222 
LUMCON,ioos:station:LUMCON:wisl1:1,2019-05-10T00:30:00Z,29.1144,-90.1840,16.65,11111222 
LUMCON,ioos:station:LUMCON:wisl1:1,2019-05-10T00:45:00Z,29.1144,-90.1840,14.93,11111222 
LUMCON,ioos:station:LUMCON:wisl1:1,2019-05-10T01:00:00Z,29.1144,-90.1840,15.39,11111222 
LUMCON,ioos:station:LUMCON:wisl1:1,2019-05-10T01:15:00Z,29.1144,-90.1840,14.99,11111222 
LUMCON,ioos:station:LUMCON:wisl1:1,2019-05-10T01:30:00Z,29.1144,-90.1840,14.8,11111222 
LUMCON,ioos:station:LUMCON:wisl1:1,2019-05-10T01:45:00Z,29.1144,-90.1840,14.77,11111222 
LUMCON,ioos:station:LUMCON:wisl1:1,2019-05-10T02:00:00Z,29.1144,-90.1840,15.3,11111222 
LUMCON,ioos:station:LUMCON:wisl1:1,2019-05-10T02:15:00Z,29.1144,-90.1840,14.19,11111222 
LUMCON,ioos:station:LUMCON:wisl1:1,2019-05-10T02:30:00Z,29.1144,-90.1840,13.86,11111222 
LUMCON,ioos:station:LUMCON:wisl1:1,2019-05-10T02:45:00Z,29.1144,-90.1840,14.95,11111222 
LUMCON,ioos:station:LUMCON:wisl1:1,2019-05-10T03:00:00Z,29.1144,-90.1840,13.92,11111222 
LUMCON,ioos:station:LUMCON:wisl1:1,2019-05-10T03:15:00Z,29.1144,-90.1840,14.06,11111222 
LUMCON,ioos:station:LUMCON:wisl1:1,2019-05-10T03:30:00Z,29.1144,-90.1840,15.02,11111222 
LUMCON,ioos:station:LUMCON:wisl1:1,2019-05-10T03:45:00Z,29.1144,-90.1840,13.35,11111222 
LUMCON,ioos:station:LUMCON:wisl1:1,2019-05-10T04:00:00Z,29.1144,-90.1840,13.5,11111222 
LUMCON,ioos:station:LUMCON:wisl1:1,2019-05-10T04:15:00Z,29.1144,-90.1840,13.76,11111222 
LUMCON,ioos:station:LUMCON:wisl1:1,2019-05-10T04:30:00Z,29.1144,-90.1840,14.22,11111222 
LUMCON,ioos:station:LUMCON:wisl1:1,2019-05-10T04:45:00Z,29.1144,-90.1840,13.47,11111222 
LUMCON,ioos:station:LUMCON:wisl1:1,2019-05-10T05:00:00Z,29.1144,-90.1840,13.25,11111222 
LUMCON,ioos:station:LUMCON:wisl1:1,2019-05-10T05:15:00Z,29.1144,-90.1840,13.76,11111222 
LUMCON,ioos:station:LUMCON:wisl1:1,2019-05-10T05:30:00Z,29.1144,-90.1840,13.91,11111222 
LUMCON,ioos:station:LUMCON:wisl1:1,2019-05-10T05:45:00Z,29.1144,-90.1840,14.16,11111222 
LUMCON,ioos:station:LUMCON:wisl1:1,2019-05-10T06:00:00Z,29.1144,-90.1840,14.49,11111222 
LUMCON,ioos:station:LUMCON:wisl1:1,2019-05-10T06:15:00Z,29.1144,-90.1840,14.34,11111222 
LUMCON,ioos:station:LUMCON:wisl1:1,2019-05-10T06:30:00Z,29.1144,-90.1840,13.63,11111222 
LUMCON,ioos:station:LUMCON:wisl1:1,2019-05-10T06:45:00Z,29.1144,-90.1840,15.4,11111222 
LUMCON,ioos:station:LUMCON:wisl1:1,2019-05-10T07:00:00Z,29.1144,-90.1840,14.85,11111222 
LUMCON,ioos:station:LUMCON:wisl1:1,2019-05-10T07:15:00Z,29.1144,-90.1840,16.44,11111222 
LUMCON,ioos:station:LUMCON:wisl1:1,2019-05-10T07:30:00Z,29.1144,-90.1840,16.7,11111222 
LUMCON,ioos:station:LUMCON:wisl1:1,2019-05-10T07:45:00Z,29.1144,-90.1840,16.65,11111222 
LUMCON,ioos:station:LUMCON:wisl1:1,2019-05-10T08:00:00Z,29.1144,-90.1840,15.15,11111222 
LUMCON,ioos:station:LUMCON:wisl1:1,2019-05-10T08:15:00Z,29.1144,-90.1840,15.1,11111222 
LUMCON,ioos:station:LUMCON:wisl1:1,2019-05-10T08:30:00Z,29.1144,-90.1840,15.1,11111222 
LUMCON,ioos:station:LUMCON:wisl1:1,2019-05-10T08:45:00Z,29.1144,-90.1840,15.44,11111222 
LUMCON,ioos:station:LUMCON:wisl1:1,2019-05-10T09:00:00Z,29.1144,-90.1840,15.24,11111222 
LUMCON,ioos:station:LUMCON:wisl1:1,2019-05-10T09:15:00Z,29.1144,-90.1840,15.15,11111222 
LUMCON,ioos:station:LUMCON:wisl1:1,2019-05-10T09:30:00Z,29.1144,-90.1840,15.23,11111222 
LUMCON,ioos:station:LUMCON:wisl1:1,2019-05-10T09:45:00Z,29.1144,-90.1840,15.23,11111222 
LUMCON,ioos:station:LUMCON:wisl1:1,2019-05-10T10:00:00Z,29.1144,-90.1840,14.93,11111222 
LUMCON,ioos:station:LUMCON:wisl1:1,2019-05-10T10:15:00Z,29.1144,-90.1840,14.72,11111222 
LUMCON,ioos:station:LUMCON:wisl1:1,2019-05-10T10:30:00Z,29.1144,-90.1840,15.13,11111222 
LUMCON,ioos:station:LUMCON:wisl1:1,2019-05-10T10:45:00Z,29.1144,-90.1840,15.4,11111222 
LUMCON,ioos:station:LUMCON:wisl1:1,2019-05-10T11:00:00Z,29.1144,-90.1840,16.75,11111222 
LUMCON,ioos:station:LUMCON:wisl1:1,2019-05-10T11:15:00Z,29.1144,-90.1840,18.68,11111222 
LUMCON,ioos:station:LUMCON:wisl1:1,2019-05-10T11:30:00Z,29.1144,-90.1840,20.96,11111222 
LUMCON,ioos:station:LUMCON:wisl1:1,2019-05-10T11:45:00Z,29.1144,-90.1840,23.95,11111222 
LUMCON,ioos:station:LUMCON:wisl1:1,2019-05-10T12:00:00Z,29.1144,-90.1840,25.92,11111222 
LUMCON,ioos:station:LUMCON:wisl1:1,2019-05-10T12:15:00Z,29.1144,-90.1840,28.58,11111222 
LUMCON,ioos:station:LUMCON:wisl1:1,2019-05-10T12:30:00Z,29.1144,-90.1840,26.71,11111222 
LUMCON,ioos:station:LUMCON:wisl1:1,2019-05-10T12:45:00Z,29.1144,-90.1840,23.27,11111222 
LUMCON,ioos:station:LUMCON:wisl1:1,2019-05-10T13:00:00Z,29.1144,-90.1840,23.99,11111222 
LUMCON,ioos:station:LUMCON:wisl1:1,2019-05-10T13:15:00Z,29.1144,-90.1840,22.45,11111222 
LUMCON,ioos:station:LUMCON:wisl1:1,2019-05-10T13:30:00Z,29.1144,-90.1840,22.42,11111222 
LUMCON,ioos:station:LUMCON:wisl1:1,2019-05-10T13:45:00Z,29.1144,-90.1840,20.32,11111222 
LUMCON,ioos:station:LUMCON:wisl1:1,2019-05-10T14:00:00Z,29.1144,-90.1840,18.68,11111222 
LUMCON,ioos:station:LUMCON:wisl1:1,2019-05-10T14:15:00Z,29.1144,-90.1840,19.4,11111222 
LUMCON,ioos:station:LUMCON:wisl1:1,2019-05-10T14:30:00Z,29.1144,-90.1840,17.64,11111222 
LUMCON,ioos:station:LUMCON:wisl1:1,2019-05-10T14:45:00Z,29.1144,-90.1840,17.75,11111222 
LUMCON,ioos:station:LUMCON:wisl1:1,2019-05-10T15:00:00Z,29.1144,-90.1840,17.41,11111222 
LUMCON,ioos:station:LUMCON:wisl1:1,2019-05-10T15:15:00Z,29.1144,-90.1840,17.56,11111222 
LUMCON,ioos:station:LUMCON:wisl1:1,2019-05-10T15:30:00Z,29.1144,-90.1840,15.65,11111222 
LUMCON,ioos:station:LUMCON:wisl1:1,2019-05-10T15:45:00Z,29.1144,-90.1840,17.62,11111222 
LUMCON,ioos:station:LUMCON:wisl1:1,2019-05-10T16:00:00Z,29.1144,-90.1840,16.53,11111222 
LUMCON,ioos:station:LUMCON:wisl1:1,2019-05-10T16:15:00Z,29.1144,-90.1840,18.09,11111222 
LUMCON,ioos:station:LUMCON:wisl1:1,2019-05-10T16:30:00Z,29.1144,-90.1840,16.46,11111222 
LUMCON,ioos:station:LUMCON:wisl1:1,2019-05-10T16:45:00Z,29.1144,-90.1840,16.42,11111222 
LUMCON,ioos:station:LUMCON:wisl1:1,2019-05-10T17:00:00Z,29.1144,-90.1840,16.03,11111222 
LUMCON,ioos:station:LUMCON:wisl1:1,2019-05-10T17:15:00Z,29.1144,-90.1840,16.34,11111222 
LUMCON,ioos:station:LUMCON:wisl1:1,2019-05-10T17:30:00Z,29.1144,-90.1840,16.46,11111222 
LUMCON,ioos:station:LUMCON:wisl1:1,2019-05-10T17:45:00Z,29.1144,-90.1840,14.95,11111222 
LUMCON,ioos:station:LUMCON:wisl1:1,2019-05-10T18:00:00Z,29.1144,-90.1840,14.99,11111222 
LUMCON,ioos:station:LUMCON:wisl1:1,2019-05-10T18:15:00Z,29.1144,-90.1840,15.04,11111222 
LUMCON,ioos:station:LUMCON:wisl1:1,2019-05-10T18:30:00Z,29.1144,-90.1840,16.38,11111222 
LUMCON,ioos:station:LUMCON:wisl1:1,2019-05-10T18:45:00Z,29.1144,-90.1840,15.92,11111222 
LUMCON,ioos:station:LUMCON:wisl1:1,2019-05-10T19:00:00Z,29.1144,-90.1840,18.92,11111222 
LUMCON,ioos:station:LUMCON:wisl1:1,2019-05-10T19:15:00Z,29.1144,-90.1840,15.39,11111222 
LUMCON,ioos:station:LUMCON:wisl1:1,2019-05-10T19:30:00Z,29.1144,-90.1840,19.24,11111222 
LUMCON,ioos:station:LUMCON:wisl1:1,2019-05-10T19:45:00Z,29.1144,-90.1840,20.13,11111222 
LUMCON,ioos:station:LUMCON:wisl1:1,2019-05-10T20:00:00Z,29.1144,-90.1840,21.68,11111222 
LUMCON,ioos:station:LUMCON:wisl1:1,2019-05-10T20:15:00Z,29.1144,-90.1840,14.06,11111222 
LUMCON,ioos:station:LUMCON:wisl1:1,2019-05-10T20:30:00Z,29.1144,-90.1840,13.08,11111222 
LUMCON,ioos:station:LUMCON:wisl1:1,2019-05-10T20:45:00Z,29.1144,-90.1840,13.97,11111222 
LUMCON,ioos:station:LUMCON:wisl1:1,2019-05-10T21:00:00Z,29.1144,-90.1840,12.3,11111222 
LUMCON,ioos:station:LUMCON:wisl1:1,2019-05-10T21:15:00Z,29.1144,-90.1840,12.59,11111222 
LUMCON,ioos:station:LUMCON:wisl1:1,2019-05-10T21:30:00Z,29.1144,-90.1840,14.95,11111222 
LUMCON,ioos:station:LUMCON:wisl1:1,2019-05-10T21:45:00Z,29.1144,-90.1840,14.62,11111222 
LUMCON,ioos:station:LUMCON:wisl1:1,2019-05-10T22:00:00Z,29.1144,-90.1840,15.36,11111222 
LUMCON,ioos:station:LUMCON:wisl1:1,2019-05-10T22:15:00Z,29.1144,-90.1840,17.34,11111222 
LUMCON,ioos:station:LUMCON:wisl1:1,2019-05-10T22:30:00Z,29.1144,-90.1840,18.0,11111222 
LUMCON,ioos:station:LUMCON:wisl1:1,2019-05-10T22:45:00Z,29.1144,-90.1840,19.66,11111222 
LUMCON,ioos:station:LUMCON:wisl1:1,2019-05-10T23:00:00Z,29.1144,-90.1840,20.82,11111222 
LUMCON,ioos:station:LUMCON:wisl1:1,2019-05-10T23:15:00Z,29.1144,-90.1840,22.69,11111222 
LUMCON,ioos:station:LUMCON:wisl1:1,2019-05-10T23:30:00Z,29.1144,-90.1840,22.55,11111222 
LUMCON,ioos:station:LUMCON:wisl1:1,2019-05-10T23:45:00Z,29.1144,-90.1840,22.46,11111222 
LUMCON,ioos:station:LUMCON:wisl1:1,2019-05-11T00:00:00Z,29.1144,-90.1840,22.4,11111222 
LUMCON,ioos:station:LUMCON:wisl1:1,2019-05-11T00:15:00Z,29.1144,-90.1840,22.82,11111222 
LUMCON,ioos:station:LUMCON:wisl1:1,2019-05-11T00:30:00Z,29.1144,-90.1840,22.39,11111222 
LUMCON,ioos:station:LUMCON:wisl1:1,2019-05-11T00:45:00Z,29.1144,-90.1840,23.66,11111222 
LUMCON,ioos:station:LUMCON:wisl1:1,2019-05-11T01:00:00Z,29.1144,-90.1840,23.43,11111222 
LUMCON,ioos:station:LUMCON:wisl1:1,2019-05-11T01:15:00Z,29.1144,-90.1840,22.82,11111222 
LUMCON,ioos:station:LUMCON:wisl1:1,2019-05-11T01:30:00Z,29.1144,-90.1840,22.96,11111222 
LUMCON,ioos:station:LUMCON:wisl1:1,2019-05-11T01:45:00Z,29.1144,-90.1840,22.08,11111222 
LUMCON,ioos:station:LUMCON:wisl1:1,2019-05-11T02:00:00Z,29.1144,-90.1840,22.21,11111222 
LUMCON,ioos:station:LUMCON:wisl1:1,2019-05-11T02:15:00Z,29.1144,-90.1840,21.0,11111222 
LUMCON,ioos:station:LUMCON:wisl1:1,2019-05-11T02:30:00Z,29.1144,-90.1840,21.23,11111222 
LUMCON,ioos:station:LUMCON:wisl1:1,2019-05-11T02:45:00Z,29.1144,-90.1840,20.63,11111222 
LUMCON,ioos:station:LUMCON:wisl1:1,2019-05-11T03:00:00Z,29.1144,-90.1840,20.9,11111222 
LUMCON,ioos:station:LUMCON:wisl1:1,2019-05-11T03:15:00Z,29.1144,-90.1840,20.44,11111222 
LUMCON,ioos:station:LUMCON:wisl1:1,2019-05-11T03:30:00Z,29.1144,-90.1840,19.59,11111222 
LUMCON,ioos:station:LUMCON:wisl1:1,2019-05-11T03:45:00Z,29.1144,-90.1840,19.81,11111222 
LUMCON,ioos:station:LUMCON:wisl1:1,2019-05-11T04:00:00Z,29.1144,-90.1840,19.65,11111222 
LUMCON,ioos:station:LUMCON:wisl1:1,2019-05-11T04:15:00Z,29.1144,-90.1840,19.11,11111222 
LUMCON,ioos:station:LUMCON:wisl1:1,2019-05-11T04:30:00Z,29.1144,-90.1840,19.23,11111222 
LUMCON,ioos:station:LUMCON:wisl1:1,2019-05-11T04:45:00Z,29.1144,-90.1840,19.25,11111222 
LUMCON,ioos:station:LUMCON:wisl1:1,2019-05-11T05:00:00Z,29.1144,-90.1840,19.56,11111222 
LUMCON,ioos:station:LUMCON:wisl1:1,2019-05-11T05:15:00Z,29.1144,-90.1840,18.48,11111222 
LUMCON,ioos:station:LUMCON:wisl1:1,2019-05-11T05:30:00Z,29.1144,-90.1840,18.89,11111222 
LUMCON,ioos:station:LUMCON:wisl1:1,2019-05-11T05:45:00Z,29.1144,-90.1840,19.87,11111222 
LUMCON,ioos:station:LUMCON:wisl1:1,2019-05-11T06:00:00Z,29.1144,-90.1840,20.11,11111222 
LUMCON,ioos:station:LUMCON:wisl1:1,2019-05-11T06:15:00Z,29.1144,-90.1840,18.75,11111222 
LUMCON,ioos:station:LUMCON:wisl1:1,2019-05-11T06:30:00Z,29.1144,-90.1840,18.17,11111222 
LUMCON,ioos:station:LUMCON:wisl1:1,2019-05-11T06:45:00Z,29.1144,-90.1840,17.18,11111222 
LUMCON,ioos:station:LUMCON:wisl1:1,2019-05-11T07:00:00Z,29.1144,-90.1840,18.06,11111222 